IRIDIUM 6 [-]

Last updated on Dec. 24, 2017, 12:19 a.m. UTC

1 24794U 97020C   17357.29133070  .33479621 -16083-5  31051-3 0  9994
2 24794  86.3482 237.4619 0038730  97.6871 263.3574 16.47860342 80605

Satellite is not in orbit.